Location: Alincthun
(50.7310°N, 1.8022°E)
Time: 06:36:01
(UTC+00:00)

Cosmos 2237 Rocket - Pass Details

Date: 17 February 2020
Orbit: 835 x 850 km, 71.0° (Epoch: 09 April)

Event Time Altitude Azimuth Distance (km) Brightness Sun altitude
Exits shadow 04:03:17 60° 358° (N) 956 2.4 -28.8°
Drops below altitude 10° 04:08:01 10° 27° (NNE) 2,458 5.1 -28.0°
Sets 04:10:29 0° 30° (NNE) 3,396 6.0 -27.7°
